TimeCDT,TemperatureF,Dew PointF,Humidity,Sea Level PressureIn,VisibilityMPH,Wind Direction,Wind SpeedMPH,Gust SpeedMPH,PrecipitationIn,Events,Conditions,WindDirDegrees,DateUTC
12:35 AM,75.2,55.4,50,30.03,10.0,ENE,6.9,-,N/A,,Clear,70,2013-07-12 05:35:00
12:56 AM,75.2,53.6,47,30.04,10.0,East,4.6,-,N/A,,Clear,80,2013-07-12 05:56:00
1:15 AM,73.4,53.6,50,30.04,10.0,ENE,6.9,-,N/A,,Clear,70,2013-07-12 06:15:00
1:55 AM,71.6,53.6,53,30.03,10.0,ENE,3.5,-,N/A,,Clear,60,2013-07-12 06:55:00
2:15 AM,71.6,53.6,53,30.04,10.0,Calm,Calm,-,N/A,,Clear,0,2013-07-12 07:15:00
2:35 AM,71.6,53.6,53,30.04,10.0,NE,4.6,-,N/A,,Clear,40,2013-07-12 07:35:00
2:55 AM,71.6,53.6,53,30.04,10.0,NE,3.5,-,N/A,,Clear,50,2013-07-12 07:55:00
3:35 AM,69.8,53.6,56,30.04,10.0,Calm,Calm,-,N/A,,Clear,0,2013-07-12 08:35:00
4:16 AM,69.8,51.8,53,30.05,10.0,NE,3.5,-,N/A,,Clear,50,2013-07-12 09:16:00
4:35 AM,68.0,51.8,56,30.05,10.0,Calm,Calm,-,N/A,,Clear,0,2013-07-12 09:35:00
4:55 AM,68.0,51.8,56,30.05,10.0,Calm,Calm,-,N/A,,Clear,0,2013-07-12 09:55:00
5:15 AM,66.2,51.8,60,30.06,10.0,Calm,Calm,-,N/A,,Clear,0,2013-07-12 10:15:00
5:35 AM,66.2,51.8,60,30.06,10.0,Calm,Calm,-,N/A,,Clear,0,2013-07-12 10:35:00
5:55 AM,64.4,51.8,64,30.06,10.0,Calm,Calm,-,N/A,,Clear,0,2013-07-12 10:55:00
6:15 AM,66.2,51.8,60,30.07,10.0,Calm,Calm,-,N/A,,Clear,0,2013-07-12 11:15:00
6:35 AM,66.2,51.8,60,30.08,10.0,Calm,Calm,-,N/A,,Clear,0,2013-07-12 11:35:00
7:15 AM,66.2,53.6,64,30.08,10.0,Calm,Calm,-,N/A,,Clear,0,2013-07-12 12:15:00
7:35 AM,68.0,53.6,60,30.10,10.0,Calm,Calm,-,N/A,,Clear,0,2013-07-12 12:35:00
7:56 AM,69.8,53.6,56,30.10,10.0,Calm,Calm,-,N/A,,Clear,0,2013-07-12 12:56:00
8:15 AM,69.8,53.6,56,30.10,10.0,ESE,4.6,-,N/A,,Clear,120,2013-07-12 13:15:00
8:35 AM,71.6,53.6,53,30.10,10.0,ESE,5.8,-,N/A,,Clear,110,2013-07-12 13:35:00
9:56 AM,75.2,53.6,47,30.11,10.0,SE,6.9,-,N/A,,Clear,130,2013-07-12 14:56:00
10:35 AM,78.8,53.6,42,30.10,10.0,East,6.9,-,N/A,,Clear,100,2013-07-12 15:35:00
10:55 AM,78.8,53.6,42,30.09,10.0,ESE,4.6,-,N/A,,Clear,110,2013-07-12 15:55:00
11:15 AM,78.8,53.6,42,30.09,10.0,ENE,6.9,-,N/A,,Clear,60,2013-07-12 16:15:00
11:35 AM,80.6,53.6,39,30.08,10.0,East,9.2,-,N/A,,Clear,80,2013-07-12 16:35:00
11:55 AM,82.4,51.8,35,30.08,10.0,East,8.1,-,N/A,,Clear,80,2013-07-12 16:55:00
12:35 PM,84.2,50.0,30,30.07,10.0,East,9.2,-,N/A,,Clear,80,2013-07-12 17:35:00
12:55 PM,86.0,48.2,27,30.07,10.0,ENE,8.1,-,N/A,,Clear,70,2013-07-12 17:55:00
1:15 PM,84.2,50.0,30,30.07,10.0,East,8.1,-,N/A,,Clear,100,2013-07-12 18:15:00
1:55 PM,87.8,48.2,25,30.05,10.0,ESE,3.5,-,N/A,,Clear,110,2013-07-12 18:55:00
2:35 PM,87.8,48.2,25,30.04,10.0,SE,5.8,-,N/A,,Clear,140,2013-07-12 19:35:00
2:55 PM,87.8,48.2,25,30.04,10.0,ESE,5.8,-,N/A,,Clear,110,2013-07-12 19:55:00
3:35 PM,89.6,48.2,24,30.02,10.0,NE,6.9,-,N/A,,Clear,50,2013-07-12 20:35:00
3:55 PM,91.4,48.2,23,30.02,10.0,East,4.6,-,N/A,,Clear,90,2013-07-12 20:55:00
4:15 PM,91.4,48.2,23,30.01,10.0,East,5.8,-,N/A,,Clear,100,2013-07-12 21:15:00
4:36 PM,89.6,48.2,24,30.01,10.0,ESE,5.8,-,N/A,,Clear,110,2013-07-12 21:36:00
4:55 PM,89.6,48.2,24,30.01,10.0,East,5.8,-,N/A,,Clear,100,2013-07-12 21:55:00
5:15 PM,91.4,48.2,23,30.01,10.0,East,4.6,-,N/A,,Clear,100,2013-07-12 22:15:00
5:35 PM,89.6,48.2,24,30.01,10.0,East,8.1,-,N/A,,Clear,90,2013-07-12 22:35:00
5:55 PM,89.6,46.4,22,30.01,10.0,East,5.8,-,N/A,,Clear,90,2013-07-12 22:55:00
6:15 PM,89.6,48.2,24,30.00,10.0,East,5.8,-,N/A,,Clear,80,2013-07-12 23:15:00
6:35 PM,89.6,46.4,22,30.00,5.0,ENE,5.8,-,N/A,,Clear,70,2013-07-12 23:35:00
7:15 PM,87.8,46.4,24,30.01,10.0,East,3.5,-,N/A,,Clear,90,2013-07-13 00:15:00
7:35 PM,87.8,48.2,25,30.01,10.0,ENE,3.5,-,N/A,,Clear,70,2013-07-13 00:35:00
7:55 PM,86.0,48.2,27,30.00,10.0,ENE,3.5,-,N/A,,Clear,70,2013-07-13 00:55:00
8:15 PM,82.4,46.4,28,30.00,10.0,ENE,3.5,-,N/A,,Clear,70,2013-07-13 01:15:00
8:35 PM,80.6,46.4,30,30.00,10.0,East,3.5,-,N/A,,Clear,80,2013-07-13 01:35:00
9:15 PM,78.8,44.6,30,30.01,10.0,Calm,Calm,-,N/A,,Clear,0,2013-07-13 02:15:00
9:35 PM,73.4,46.4,38,30.01,10.0,Calm,Calm,-,N/A,,Clear,0,2013-07-13 02:35:00
9:55 PM,73.4,46.4,38,30.01,10.0,Calm,Calm,-,N/A,,Clear,0,2013-07-13 02:55:00
10:15 PM,73.4,44.6,36,30.02,10.0,Calm,Calm,-,N/A,,Clear,0,2013-07-13 03:15:00
10:35 PM,73.4,44.6,36,30.02,10.0,NE,4.6,-,N/A,,Clear,40,2013-07-13 03:35:00
10:55 PM,73.4,46.4,38,30.03,10.0,Calm,Calm,-,N/A,,Clear,0,2013-07-13 03:55:00
11:35 PM,69.8,44.6,40,30.04,10.0,Calm,Calm,-,N/A,,Clear,0,2013-07-13 04:35:00
11:55 PM,69.8,46.4,43,30.04,10.0,Calm,Calm,-,N/A,,Clear,0,2013-07-13 04:55:00